FENGYUN 1C DEB

Satellite information

Favourite Embed

Satellite Type and Status

DEBRISIN ORBIT

Key statistics

Satellite FENGYUN 1C DEB at a glance.

Uptime

9714

Days in orbit

Revolutions

≈ 14.2

Per day

Orbit

SSO

Sun Synchronous Orbit

Inclination

98.8

Latest

Satellite identification and parameters

Extended collection of information and parameters for FENGYUN 1C DEB.

Object identification

Identified? True

Debris? True

Object name: FENGYUN 1C DEB

International designator: 1999-025CJ

Object number (NORAD): 29792

Object ID (CCSDS): 29792

Country: PEOPLES REPUBLIC OF CHINA (PRC)

Current information (Y/N): Y

RCS size: SMALL

Orbital parameters

Period: 101.756 minutes

Inclination: 98.7575 deg

SMA: 7219.943 km

Apoapsis: 876.521 km

Periapsis: 807.095 km

RAAN: 36.6781 deg

Eccentricy: 0.00480793

Argument of periapsis: 38.5536 deg

Mean anomaly: 321.9056 deg

Mean motion: 14.15148904 rev/day

Mean motion (dot): 0.00003612 rev/day2

B* drag term: 0.0018619114 1/REarth

Two-line elements (TLE)

Creation date: Dec. 12, 2025, 10:14 a.m.

Reference frame: TEME

Reference center: EARTH

Epoch: Dec. 12, 2025, 2:27 a.m. UTC

TLE line 0: 0 FENGYUN 1C DEB

TLE line 1: 1 29792U 99025CJ 25346.10261511 .00003612 00000-0 18619-2 0 9990

TLE line 2: 2 29792 98.7575 36.6781 0048079 38.5536 321.9056 14.15148904969301

Live tracking on map

Real-time ground track for satellite FENGYUN 1C DEB.

In-orbit conjunctions

A list of the most updated potential collisions computed for object FENGYUN 1C DEB.

Target Orbit TCA Probability of collision Miss distance Type
CZ-6A DEB LEO 2024-10-29 21:06:54 0.0002801139 744.0 (m) DEBRIS
FENGYUN 1C DEB SSO 2024-09-27 12:39:27 0.0003408495 922.0 (m) DEBRIS
FENGYUN 1C DEB SSO 2024-06-13 12:31:22 0.0001085511 140.0 (m) DEBRIS

Associated space launch

Chinese polar orbiting meteorological satellite

FENGYUN 1C DEB was lifted into orbit during the mission ‘Long March 4B | Feng Yun 1C’, on board a Long March 4B space rocket.

The launch took place on May 10, 1999, 1:33 a.m. from Launch Complex 7.

For more information about the launch, click the button.

Launch to space Long March 4B | Feng Yun 1C
Long March 4B | Feng Yun 1C

Agency: N/A

Status: Launch Successful

Launch date: May 10, 1999, 1:33 a.m. UTC

Rocket: Long March 4B

Launch pad: Launch Complex 7

Location: Taiyuan Satellite Launch Center, People's Republic of China

...

Latest news about this satellite

There are no fresh news available about this satellite. Check back as we update our databases every day.


Newsletter sign-up

Weekly statistics, charts and insights to help you stay on top of the space industry.